Zurück zum Katalog

FENGYUN 1C DEB

AktivSSO
NORAD 30181·DEBRIS·🇨🇳 China

Gestartet May 10, 1999 von Taiyuan Satellite Launch Center

Loading…

Nächste Überflüge (nächste 24 Stunden)

TLE

AktuellSource: Space-Track

Epoche: Sep 14, 2026, 04:45 UTC

1 30181U 99025UN  26257.19838574  .00002298  00000-0  88238-3 0  9998
2 30181  98.8363 349.6924 0039093 271.5896 117.8351 14.31062996 14317

Verfolge FENGYUN 1C DEB in Echtzeit mit AllMySat

Download on the App Store